Hourly Data Report for July 11, 2019

TORONTO CITY
ONTARIO
Current Station Operator: ECCC - MSC

43°40'00.000" N
79°24'00.000" W
112.50 m
6158355
71508
XTO

Download Data

Hourly Data (July 2019)
Hourly Data Report for July 11, 2019
TIME
LST
Temp Definition
°C
Dew Point Definition
°C
Rel Hum Definition
%
Precip. Amount Definition
mm

Wind Dir Definition
10's deg

Wind Spd Definition
km/h
Visibility Definition
km
Stn Press Definition
kPa
Hmdx Definition


Wind Chill Definition


Weather Definition


00:00 24.2 18.0 69 0.0       99.75 30   LegendNANA
01:00 23.7 18.2 71 0.0       99.67 30   LegendNANA
02:00 22.7 17.9 74 0.0       99.64 29   LegendNANA
03:00 22.6 18.1 76 0.0       99.63 29   LegendNANA
04:00 22.9 18.7 77 0.0       99.60 29   LegendNANA
05:00 22.9 18.6 76 0.0       99.56 29   LegendNANA
06:00 23.1 18.1 74 0.0       99.56 29   LegendNANA
07:00 24.0 17.2 66 0.0       99.55 29   LegendNANA
08:00 25.1 18.3 66 0.0       99.54 31   LegendNANA
09:00 24.8 18.8 69 0.0       99.52 31   LegendNANA
10:00 25.3 19.4 70 0.0       99.49 32   LegendNANA
11:00 26.2 21.4 75 0.0       99.39 35   LegendNANA
12:00 27.6 19.7 62 0.0       99.34 35   LegendNANA
13:00 27.9 20.0 62 0.0       99.32 35   LegendNANA
14:00 26.1 19.6 68 0.0       99.33 33   LegendNANA
15:00 26.7 17.7 58 0.0       99.30 32   LegendNANA
16:00 28.9 14.9 43 0.0       99.25 33   LegendNANA
17:00 27.5 15.3 47 0.0       99.31 32   LegendNANA
18:00 25.9 13.9 48 0.0       99.37 29   LegendNANA
19:00 23.9 13.0 51 0.0       99.43 27   LegendNANA
20:00 22.5 12.0 51 0.0       99.46 25   LegendNANA
21:00 20.8 11.9 57 0.0       99.52     LegendNANA
22:00 19.5 11.3 59 0.0       99.53     LegendNANA
23:00 18.6 11.6 64 0.0       99.51     LegendNANA

Notes on Data Quality.

Legend

  • E = Estimated
  • M = Missing
  • NA = Not Available*
  • [empty] = Indicates an unobserved value
Date modified: